* Astronomy

Members Login
Post Info TOPIC: Comet P/2006 Y2 = 2012 K9 (GIBBS)


L

Posts: 130087
Date:
Comet 263P/Gibbs
Permalink  
 


Comet 263P/Gibbs is at Opposition (3.697 AU) in the constellation Aquarius on the 26th August 2015



__________________


L

Posts: 130087
Date:
RE: Comet P/2006 Y2 = 2012 K9 (GIBBS)
Permalink  
 


Comet 263P/Gibbs is at Opposition (3.737 AU) on the 2nd August 2014 

Ephemeris

Date    TT    R. A. (2000) Decl.     Delta      r     Elong.  Phase   Mag
2014 08 01    20 54 56.8 -23 32 32   3.7353  4.7460   174.0     1.3  27.6
2014 08 02    20 54 11.8 -23 36 22   3.7367  4.7473   174.1     1.3  27.6
2014 08 03    20 53 26.8 -23 40 09   3.7383  4.7486   173.9     1.3  27.6
2014 08 04    20 52 41.9 -23 43 53   3.7402  4.7499   173.6     1.4  27.6
2014 08 05    20 51 56.9 -23 47 35   3.7425  4.7512   173.1     1.5  27.6
2014 08 06    20 51 12.0 -23 51 14   3.7450  4.7524   172.5     1.6  27.6
2014 08 07    20 50 27.2 -23 54 50   3.7479  4.7537   171.7     1.8  27.6
2014 08 08    20 49 42.5 -23 58 22   3.7511  4.7550   170.9     1.9  27.6
2014 08 09    20 48 57.9 -24 01 52   3.7546  4.7562   170.0     2.1  27.6
2014 08 10    20 48 13.5 -24 05 18   3.7584  4.7575   169.0     2.3  27.6
2014 08 11    20 47 29.3 -24 08 40   3.7624  4.7587   168.1     2.5  27.7
2014 08 12    20 46 45.3 -24 11 59   3.7668  4.7600   167.1     2.7  27.7
2014 08 13    20 46 01.6 -24 15 15   3.7715  4.7612   166.1     2.9  27.7
2014 08 14    20 45 18.2 -24 18 27   3.7765  4.7624   165.0     3.1  27.7
2014 08 15    20 44 35.0 -24 21 35   3.7818  4.7636   164.0     3.4  27.7
2014 08 16    20 43 52.2 -24 24 39   3.7874  4.7648   162.9     3.6  27.7
2014 08 17    20 43 09.8 -24 27 39   3.7933  4.7660   161.9     3.8  27.7
2014 08 18    20 42 27.7 -24 30 35   3.7995  4.7672   160.8     4.0  27.7
2014 08 19    20 41 46.1 -24 33 27   3.8060  4.7684   159.7     4.2  27.7
2014 08 20    20 41 04.9 -24 36 15   3.8127  4.7696   158.7     4.4  27.7
2014 08 21    20 40 24.2 -24 38 59   3.8198  4.7707   157.6     4.6  27.7
2014 08 22    20 39 43.9 -24 41 39   3.8271  4.7719   156.5     4.8  27.7
2014 08 23    20 39 04.2 -24 44 14   3.8348  4.7730   155.4     5.1  27.7
2014 08 24    20 38 25.1 -24 46 45   3.8427  4.7742   154.3     5.3  27.7
2014 08 25    20 37 46.5 -24 49 12   3.8508  4.7753   153.3     5.5  27.7
2014 08 26    20 37 08.5 -24 51 34   3.8593  4.7765   152.2     5.7  27.7
2014 08 27    20 36 31.1 -24 53 52   3.8680  4.7776   151.1     5.9  27.7
2014 08 28    20 35 54.4 -24 56 05   3.8770  4.7787   150.0     6.1  27.7
2014 08 29    20 35 18.3 -24 58 14   3.8862  4.7798   148.9     6.3  27.7
2014 08 30    20 34 42.9 -25 00 19   3.8958  4.7809   147.8     6.5  27.7
2014 08 31    20 34 08.2 -25 02 19   3.9055  4.7820   146.8     6.6  27.8


__________________


L

Posts: 130087
Date:
Comet 263P/Gibbs
Permalink  
 


Comet 263P/Gibbs is at Opposition (2.569 AU) on the 1st July, 2013.

Ephemeris

Date    TT    R. A. (2000) Decl.     Delta      r     Elong.  Phase   Mag
2013 06 30    18 39 59.5 -21 09 51   2.5641  3.5802   177.7     0.6  25.6
2013 07 01    18 39 01.2 -21 12 38   2.5687  3.5849   178.1     0.5  25.6
2013 07 02    18 38 03.0 -21 15 25   2.5735  3.5896   177.7     0.6  25.6
2013 07 03    18 37 05.1 -21 18 11   2.5787  3.5943   177.0     0.9  25.6
2013 07 04    18 36 07.4 -21 20 55   2.5841  3.5990   176.0     1.1  25.6
2013 07 05    18 35 10.1 -21 23 38   2.5899  3.6037   174.9     1.4  25.6
2013 07 06    18 34 13.1 -21 26 19   2.5959  3.6084   173.8     1.7  25.6
2013 07 07    18 33 16.5 -21 29 00   2.6023  3.6130   172.7     2.1  25.7
2013 07 08    18 32 20.4 -21 31 38   2.6090  3.6177   171.5     2.4  25.7
2013 07 09    18 31 24.8 -21 34 16   2.6160  3.6223   170.4     2.7  25.7
2013 07 10    18 30 29.6 -21 36 51   2.6232  3.6270   169.2     3.0  25.7
2013 07 11    18 29 35.1 -21 39 25   2.6308  3.6316   168.1     3.3  25.7
2013 07 12    18 28 41.2 -21 41 57   2.6387  3.6362   166.9     3.6  25.7
2013 07 13    18 27 47.9 -21 44 28   2.6468  3.6408   165.8     3.9  25.7
2013 07 14    18 26 55.3 -21 46 57   2.6553  3.6454   164.6     4.2  25.7
2013 07 15    18 26 03.5 -21 49 24   2.6640  3.6500   163.5     4.5  25.8
2013 07 16    18 25 12.4 -21 51 50   2.6730  3.6545   162.3     4.8  25.8
2013 07 17    18 24 22.1 -21 54 14   2.6823  3.6591   161.2     5.1  25.8
2013 07 18    18 23 32.7 -21 56 36   2.6919  3.6637   160.1     5.4  25.8
2013 07 19    18 22 44.1 -21 58 56   2.7018  3.6682   158.9     5.7  25.8
2013 07 20    18 21 56.4 -22 01 15   2.7119  3.6727   157.8     6.0  25.8
2013 07 21    18 21 09.6 -22 03 32   2.7223  3.6773   156.6     6.3  25.8
2013 07 22    18 20 23.8 -22 05 47   2.7330  3.6818   155.5     6.6  25.8
2013 07 23    18 19 38.9 -22 08 00   2.7440  3.6863   154.4     6.8  25.9
2013 07 24    18 18 55.0 -22 10 12   2.7552  3.6908   153.3     7.1  25.9
2013 07 25    18 18 12.1 -22 12 22   2.7666  3.6953   152.1     7.4  25.9
2013 07 26    18 17 30.3 -22 14 30   2.7783  3.6997   151.0     7.6  25.9
2013 07 27    18 16 49.5 -22 16 37   2.7903  3.7042   149.9     7.9  25.9
2013 07 28    18 16 09.7 -22 18 42   2.8025  3.7086   148.8     8.2  25.9
2013 07 29    18 15 31.1 -22 20 45   2.8150  3.7131   147.7     8.4  25.9
2013 07 30    18 14 53.5 -22 22 47   2.8277  3.7175   146.6     8.6  26.0
2013 07 31    18 14 17.1 -22 24 47   2.8406  3.7219   145.5     8.9  26.0


-- Edited by Blobrana on Sunday 30th of June 2013 10:03:31 PM

__________________


L

Posts: 130087
Date:
Comet P/2006 Y2 = 2012 K9 (GIBBS)
Permalink  
 


Orbital elements:
    P/2006 Y2 = 2012 K9 (Gibbs)
Epoch 2012 June 2.0 TT = JDT 2456080.5
T 2012 May 20.86037 TT                                  MPC
q   1.2633710            (2000.0)            P               Q
n   0.18405270     Peri.   34.48859     -0.75912895     -0.62187752
a   3.0608445      Node   105.87684     +0.54308322     -0.76796052
e   0.5872476      Incl.   11.53462     +0.35886468     -0.15331338
P   5.36
From 131 observations 2006 Nov. 10-2012 June 14

MPEC 2012 - L44



__________________
Page 1 of 1  sorted by
 
Quick Reply

Please log in to post quick replies.



Create your own FREE Forum
Report Abuse
Powered by ActiveBoard